Location: Adaghas
(31.2259°N, 9.0496°W)
Time: 03:48:08
(UTC+00:00)

Iridium 4 Rocket - Pass Details

Date: 18 September 2020
Orbit: 585 x 904 km, 86.9° (Epoch: 23 October)

Event Time Altitude Azimuth Distance (km) Brightness Sun altitude
Rises 19:16:17 0° 181° (S) 2,960 6.5 -9.1°
Reaches altitude 10° 19:18:25 10° 181° (S) 2,094 5.7 -9.5°
Maximum altitude 19:23:05 87° 269° (W) 723 3.4 -10.5°
Drops below altitude 10° 19:28:14 10° 0° (N) 2,313 6.1 -11.6°
Sets 19:30:42 0° 1° (N) 3,296 6.9 -12.1°
